Weather in Kalinka

Russia / Khabarovsk Krai     48°25′59″N   135°25′27″E
temp.,
°C
wind,
m/s
gust,
m/s
humid.,
%
clouds,
%
prec.,
mm/h
press.,
hPa
HPBL,
m
27 february, sat
sat2701:00−21s33960 0.0 103427
04:00−22ssw33970 0.0 103534
07:00−23s34970 0.0 103550
10:00−18ssw47935 0.0 1034237
13:00−12ssw468750 0.0 1033392
16:00−10s358375 0.0 1029500
19:00−11ese2389100 0.0 102623
22:00−10s2390100 0.0 102370
28 february, sun
sun2801:00−8ssw3787100 0.0 1020226
04:00−7ssw51495100 0.9 1018672
07:00−6sw31095100 1.1 1017477
10:00−5w61092100 1.4 1017564
13:00−7w81288100 0.0 1018596
16:00−7w71082100 0.0 1019855
19:00−10w51278100 0.0 1022492
22:00−13wsw61578100 0.0 1025482
1 march, mon
mon101:00−16w71576100 0.0 1025434
04:00−19wsw8157653 0.0 1027437
07:00−20wsw816770 0.0 1029487
10:00−18w915730 0.0 1031678
13:00−16w914690 0.0 1030945
16:00−15w812690 0.0 10311206
19:00−17wsw510780 0.0 1032185
22:00−21wsw34858 0.0 103353
2 march, tue
tue201:00−23wsw34870 0.0 103243
04:00−23wsw34915 0.0 103250
07:00−24sw468910 0.0 103373
10:00−20wsw59765 0.0 1032397
13:00−17w59730 0.0 1031650
16:00−15w58740 0.0 1030747
19:00−20wsw44830 0.0 103160
22:00−22ssw23790 0.0 103220
3 march, wed
wed301:00−25s11820 0.0 103120
04:00−25s22860 0.0 103120
07:00−25s33890 0.0 103029
10:00−20s36870 0.0 1029209
13:00−14s367711 0.0 1026495
16:00−10sse247145 0.0 1022626
19:00−13ese2283100 0.0 102020
22:00−12ssw2388100 0.0 101971